Dewpoint
-14 -13 -11 -12 -11 -15 -4 5 6 9 8 8 8 7 6 6 4 7 7 7 7 6 7 7 7 7 8 7 7 7 7 7 7 7 5 2 5 7
-12 -13 -11 -6 -4 -15 -9 1 5 8 8 8 8 7 6 6 4 6 7 7 7 7 7 7 7 7 7 7 7 7 7 7 6 4 1 0 -3 4
-10 -11 -10 -7 -5 -10 -13 -2 1 8 8 8 7 6 6 7 4 4 5 5 7 6 7 7 7 7 7 5 4 6 7 6 7 4 -2 -4 -4 -3
-8 -7 -10 -6 -5 -9 -11 -9 -2 7 8 8 7 7 7 6 5 4 5 6 6 6 7 7 7 6 6 6 7 6 7 7 7 4 -4 -4 -2 -0
-8 -7 -8 -5 -4 -4 -7 -13 -1 6 8 8 8 7 7 7 6 5 5 5 6 6 7 7 7 6 6 6 7 6 6 6 6 2 -3 -1 -1 -0
-8 -8 -7 -6 -5 -4 -5 -12 -7 3 8 8 7 7 7 7 6 5 6 6 6 6 6 7 6 5 5 6 6 6 6 6 6 2 -1 -1 -0 -0
-7 -7 -7 -6 -5 -6 -7 -15 -2 3 8 8 8 8 8 7 7 6 6 7 7 6 5 7 7 5 6 7 7 6 6 5 5 3 2 0 -0 0
-6 -7 -6 -6 -5 -5 -9 -10 0 1 8 8 8 8 7 6 7 7 7 7 7 7 6 5 7 6 6 5 5 6 6 4 4 4 3 2 1 0
-4 -6 -6 -5 -4 -3 -3 -2 -5 1 7 8 8 8 7 6 6 7 7 6 7 7 6 6 6 6 6 6 5 4 6 6 6 6 5 3 3 2
-4 -3 -4 -3 -3 -2 -2 -4 -2 3 7 8 8 7 8 7 6 6 5 4 2 3 5 7 5 4 2 4 5 4 4 4 5 6 7 6 6 2
-2 -1 -1 -1 -2 -0 0 0 3 4 9 8 8 8 8 8 6 6 6 5 6 6 5 4 3 2 3 2 2 3 2 4 5 4 2 2 1 3
-1 0 0 0 1 0 -0 3 3 8 9 8 8 9 9 8 8 7 6 5 5 6 4 5 4 3 5 3 3 1 -4 0 4 5 3 2 1 2
-2 0 3 2 -0 1 3 3 8 9 9 9 9 9 8 8 8 7 6 6 6 6 6 6 5 4 3 2 1 -0 -3 -4 1 3 3 3 3 3
-6 -3 1 4 4 4 4 5 9 9 9 9 8 8 9 9 9 7 7 6 6 6 6 7 6 4 4 3 3 1 -2 -4 -5 -6 -5 0 3 3
-6 -6 -1 3 4 6 8 9 9 9 9 9 8 8 8 8 8 7 7 7 7 7 7 7 5 4 4 3 3 3 3 0 -3 -5 -4 -6 -7 -3
-1 1 3 2 4 4 7 7 7 8 7 7 7 7 8 7 7 8 7 7 7 7 7 6 6 6 6 6 6 5 5 4 1 -1 -3 -4 -3 -1
-2 0 0 0 1 1 1 2 5 6 6 7 7 7 7 7 7 7 8 7 7 7 7 7 7 7 7 7 7 6 5 4 2 1 0 -1 -2 -2
-3 -5 -5 -5 -6 -6 -4 -2 -1 -0 1 3 4 5 6 7 7 7 7 7 7 7 7 7 7 7 7 7 7 7 6 5 5 4 3 3 2 1
-10 -10 -10 -9 -9 -9 -8 -7 -6 -6 -4 -2 -1 1 2 3 5 6 6 6 6 6 6 7 7 7 7 6 7 6 6 6 5 5 5 5 4 2
-14 -14 -13 -12 -11 -10 -10 -10 -7 -6 -6 -5 -4 -3 -2 -1 1 2 3 3 5 6 6 6 6 6 6 6 6 7 6 6 5 5 5 5 5 5
-16 -15 -15 -15 -14 -13 -13 -11 -10 -9 -8 -7 -7 -7 -6 -5 -3 -1 -0 0 1 3 3 4 4 5 5 5 6 6 7 7 7 7 7 7 7 7
-24 -20 -17 -15 -15 -15 -15 -15 -15 -13 -11 -10 -8 -8 -8 -7 -6 -5 -4 -3 -2 -1 0 0 1 2 3 3 4 4 5 6 6 6 6 6 6 6
-25 -26 -25 -24 -18 -17 -18 -17 -17 -16 -15 -15 -12 -11 -10 -9 -8 -8 -7 -6 -6 -4 -3 -2 -1 0 1 2 2 2 3 4 5 5 5 6 6 6
Wind_Speed
53 58 54 56 54 63 62 39 34 34 42 43 38 50 44 42 42 45 43 36 37 36 37 34 34 33 34 31 26 25 24 22 25 22 21 22 19 19
53 60 61 54 49 59 64 64 42 42 40 43 51 47 46 47 41 46 45 42 39 39 37 36 33 36 35 37 32 28 26 25 24 26 24 23 23 21
54 58 64 56 54 60 66 71 63 35 47 44 47 48 49 54 42 41 47 45 42 37 40 38 36 32 36 32 35 33 31 29 27 27 25 24 23 22
54 53 65 54 59 60 59 67 73 38 49 42 50 52 52 59 44 42 46 44 45 41 42 42 41 36 32 34 33 35 33 31 31 30 27 27 25 24
55 53 63 50 50 49 55 62 71 39 51 45 52 53 55 58 49 45 44 40 43 44 42 43 43 41 37 37 37 35 34 32 34 32 30 29 28 26
57 59 60 54 61 58 55 62 69 56 45 51 51 54 54 59 53 50 50 47 43 44 46 44 38 41 43 39 39 37 39 36 34 28 30 31 29 28
59 59 60 58 55 59 62 62 71 49 50 54 48 50 53 53 55 54 52 49 47 45 47 49 45 40 45 43 41 40 39 38 37 34 32 33 32 31
63 60 57 58 60 57 57 69 68 70 61 56 53 57 55 55 55 55 52 48 42 48 46 48 50 48 44 47 47 45 42 39 37 35 34 35 35 34
59 59 57 56 54 57 59 60 80 78 56 68 60 57 58 55 58 56 51 48 45 39 46 49 50 51 49 47 46 47 46 44 43 42 39 40 39 38
54 53 58 55 55 58 53 68 80 75 61 69 68 65 59 56 57 53 48 39 32 40 43 41 48 49 47 50 50 47 48 47 46 45 44 42 43 42
52 50 54 53 56 58 55 63 61 59 68 66 63 60 57 57 55 54 53 50 44 46 41 38 41 42 46 47 48 50 49 50 48 46 46 45 39 38
23 34 56 50 49 48 61 55 61 54 67 61 57 51 55 56 53 52 53 54 48 39 47 42 38 37 37 43 45 45 43 48 48 48 46 44 42 42
13 13 29 46 42 62 64 64 52 61 63 62 57 53 53 49 49 52 55 51 52 45 41 42 40 40 36 17 33 39 36 38 44 47 46 46 45 45
35 28 24 21 31 37 52 57 62 60 57 61 59 58 54 49 48 52 53 53 50 41 38 38 42 45 43 41 32 28 24 35 39 42 44 45 46 46
37 33 37 39 43 40 36 50 47 52 55 53 53 54 54 52 51 49 47 46 44 42 39 35 38 40 41 42 41 39 35 33 31 29 39 43 44 47
39 33 32 34 31 26 28 31 35 39 38 35 39 41 47 50 52 47 47 47 45 43 39 36 34 34 37 37 37 39 37 36 30 32 32 34 33 36
38 36 40 39 31 29 28 25 22 22 27 29 33 34 35 39 42 47 48 49 49 47 44 41 37 35 34 36 37 37 35 33 31 29 30 31 33 35
36 44 45 45 44 39 36 33 28 24 23 21 22 25 29 32 34 35 41 40 44 42 45 46 43 41 39 38 39 37 37 36 34 33 33 35 35 34
41 43 42 40 39 38 37 36 32 28 24 23 19 19 19 19 26 30 32 34 36 34 34 41 45 48 45 43 41 43 42 40 37 37 38 40 41 38
42 41 40 37 35 35 34 33 30 27 28 26 23 21 19 16 16 15 17 17 24 30 30 33 36 40 41 40 40 45 40 39 42 40 41 42 41 41
38 37 36 35 34 33 32 30 30 29 25 23 23 21 18 16 16 15 9 6 7 14 17 18 21 30 32 35 34 38 36 35 36 35 31 37 36 39
33 33 31 31 32 32 31 28 28 26 25 22 20 21 19 18 16 13 9 7 4 1 5 9 12 16 20 22 24 28 32 29 31 33 34 35 37 36
31 30 29 28 26 26 27 27 26 25 24 25 24 19 19 18 16 15 13 10 8 7 5 5 6 9 12 15 18 20 23 28 34 32 33 39 43 44
Wind_Direction
248 255 256 257 255 249 246 233 248 194 202 207 208 214 216 216 218 214 216 216 214 215 210 212 214 212 209 213 216 209 214 213 204 205 206 203 192 194
248 249 250 249 252 251 249 243 249 237 214 210 211 219 219 216 216 215 220 221 225 213 211 212 211 214 216 217 219 219 220 213 213 208 208 208 202 202
254 246 248 251 248 250 250 246 246 243 216 210 215 224 223 218 209 214 219 217 219 218 217 213 212 213 215 218 223 216 220 215 214 215 209 206 207 206
252 248 248 247 244 248 247 249 243 236 219 210 212 218 216 217 215 215 212 213 217 216 213 215 214 214 215 215 220 215 218 218 216 218 210 209 208 210
249 247 249 240 244 240 242 247 239 239 218 210 213 217 212 214 210 215 215 212 215 217 217 215 220 219 218 217 217 218 219 220 220 218 211 211 212 213
251 244 242 239 237 237 238 239 240 237 216 207 207 205 209 209 211 209 212 214 217 217 219 222 223 219 214 218 219 220 216 221 228 222 218 213 215 217
255 242 239 236 237 240 241 238 234 229 225 204 199 201 199 198 204 206 210 215 220 222 219 219 224 220 214 218 222 224 220 222 227 229 224 220 221 223
250 240 235 236 237 236 239 239 229 230 220 197 196 199 202 203 204 203 207 205 207 222 221 221 219 220 222 225 224 222 224 222 227 228 230 228 227 227
247 236 233 233 233 232 230 228 230 229 226 201 200 202 207 207 204 204 205 207 206 213 217 221 220 224 226 230 231 224 222 224 227 231 234 236 233 232
240 239 235 228 229 225 227 221 225 226 219 202 207 217 218 214 211 207 203 206 211 220 220 212 221 224 227 231 234 234 228 228 228 230 233 236 238 235
230 236 230 229 225 220 216 219 228 244 201 207 210 215 219 217 211 205 202 200 198 209 214 217 222 223 225 230 235 236 238 233 233 234 235 238 243 243
185 210 225 220 219 222 210 220 230 203 191 196 199 211 217 215 214 215 210 204 199 203 211 211 221 222 223 230 235 241 237 232 233 235 236 238 239 243
105 139 196 215 208 197 208 224 210 193 198 202 204 205 208 214 214 215 217 217 211 209 216 214 221 223 221 225 235 238 238 232 231 232 234 236 238 239
51 58 93 184 205 223 235 236 197 201 196 197 198 203 207 213 215 217 219 222 226 230 230 224 227 224 225 226 230 235 231 232 233 235 237 237 238 239
68 73 99 134 156 168 174 175 182 196 198 196 199 203 212 211 212 214 219 222 227 227 227 232 231 232 231 234 239 239 238 239 237 237 237 237 236 237
63 67 85 83 96 107 132 149 161 171 177 184 187 191 201 206 210 214 216 217 218 220 222 225 224 227 231 235 240 243 242 238 239 240 242 244 242 240
63 66 69 75 79 80 84 96 125 141 158 175 190 192 197 201 208 213 216 218 217 218 217 217 220 228 233 236 237 240 241 239 238 240 244 244 244 246
62 64 63 63 65 63 68 74 85 95 111 137 155 172 191 204 204 203 208 211 218 217 226 220 218 220 226 234 237 241 242 241 240 241 245 250 252 252
62 61 60 62 63 64 64 61 67 67 79 96 108 123 138 161 192 197 201 208 214 210 210 222 222 221 222 226 233 236 239 243 243 244 246 248 253 257
60 59 59 59 57 59 58 60 63 58 62 68 73 79 92 112 137 152 174 178 190 199 202 207 212 216 222 227 230 241 243 244 248 251 255 258 260 262
59 59 57 56 58 56 53 52 51 54 53 54 59 60 60 71 87 94 121 131 170 184 191 193 198 210 217 223 228 234 242 246 247 249 256 263 266 267
53 55 56 54 53 54 53 51 51 48 47 52 51 49 45 44 54 57 61 58 62 161 206 219 220 223 223 229 224 230 232 235 242 245 251 255 256 259
46 46 47 47 47 46 46 45 48 46 45 40 44 43 36 35 37 39 31 23 6 354 324 290 272 254 247 251 251 250 246 244 244 242 245 249 255 259
Height
1437 1435 1437 1437 1443 1449 1448 1455 1465 1456 1457 1462 1466 1471 1476 1484 1489 1499 1506 1512 1517 1523 1526 1530 1534 1538 1541 1544 1547 1550 1551 1553 1555 1557 1558 1560 1563 1566
1423 1424 1423 1425 1427 1432 1441 1443 1444 1450 1448 1450 1453 1458 1468 1475 1478 1488 1497 1504 1508 1514 1520 1523 1526 1531 1535 1538 1542 1545 1546 1548 1550 1552 1554 1556 1559 1562
1407 1409 1407 1412 1415 1419 1423 1428 1433 1438 1436 1442 1447 1451 1459 1469 1469 1479 1488 1493 1499 1507 1512 1517 1520 1523 1527 1532 1536 1540 1542 1543 1545 1547 1549 1552 1555 1558
1391 1394 1393 1398 1399 1404 1410 1415 1424 1425 1429 1430 1435 1443 1448 1458 1461 1468 1478 1484 1491 1498 1504 1509 1514 1518 1521 1525 1529 1533 1536 1538 1540 1542 1545 1547 1551 1554
1377 1379 1377 1386 1386 1390 1394 1398 1405 1411 1418 1421 1426 1433 1440 1452 1451 1460 1470 1476 1482 1490 1496 1501 1506 1510 1515 1518 1522 1526 1530 1532 1534 1536 1539 1543 1546 1549
1359 1361 1362 1366 1369 1377 1385 1388 1393 1403 1406 1411 1416 1422 1429 1442 1441 1446 1460 1467 1474 1481 1489 1493 1498 1501 1507 1511 1514 1518 1523 1526 1528 1532 1535 1538 1541 1544
1340 1342 1344 1348 1352 1357 1364 1364 1381 1379 1395 1399 1403 1412 1421 1427 1426 1436 1450 1457 1465 1471 1479 1485 1489 1493 1497 1503 1506 1510 1514 1519 1522 1525 1529 1532 1535 1538
1320 1322 1327 1329 1333 1340 1344 1349 1356 1372 1380 1381 1388 1394 1403 1406 1421 1427 1439 1446 1455 1460 1470 1475 1479 1483 1487 1491 1495 1501 1505 1511 1516 1519 1523 1526 1529 1532
1300 1304 1309 1312 1319 1326 1332 1339 1353 1361 1365 1367 1374 1379 1391 1396 1410 1420 1426 1432 1441 1451 1460 1464 1469 1472 1477 1481 1486 1491 1497 1502 1506 1511 1515 1519 1522 1525
1282 1286 1291 1298 1304 1311 1318 1328 1342 1349 1352 1358 1361 1370 1382 1394 1399 1406 1415 1425 1436 1442 1448 1452 1457 1461 1468 1472 1477 1483 1488 1493 1497 1501 1505 1509 1513 1516
1265 1269 1274 1279 1286 1300 1309 1319 1326 1331 1338 1349 1354 1366 1373 1384 1393 1402 1406 1413 1419 1428 1438 1446 1448 1454 1458 1462 1466 1473 1478 1482 1487 1491 1496 1499 1504 1508
1250 1254 1258 1263 1271 1277 1289 1302 1315 1317 1325 1339 1350 1359 1368 1377 1385 1391 1397 1399 1410 1420 1425 1436 1442 1446 1449 1451 1456 1461 1465 1470 1475 1480 1485 1490 1494 1499
1241 1245 1247 1250 1259 1275 1290 1302 1305 1311 1321 1331 1342 1351 1359 1367 1374 1382 1388 1394 1400 1404 1416 1425 1431 1436 1440 1441 1445 1450 1456 1460 1464 1468 1473 1477 1482 1486
1238 1227 1235 1242 1260 1274 1282 1288 1297 1307 1315 1319 1330 1340 1347 1356 1366 1375 1382 1389 1396 1402 1410 1414 1419 1423 1429 1433 1438 1442 1446 1450 1453 1457 1461 1465 1469 1473
1256 1261 1250 1252 1258 1268 1269 1275 1287 1301 1306 1311 1323 1330 1337 1348 1359 1368 1376 1384 1390 1395 1400 1404 1410 1415 1420 1423 1429 1432 1437 1441 1445 1447 1450 1452 1456 1460
1253 1247 1243 1246 1253 1261 1263 1273 1282 1290 1301 1312 1317 1325 1333 1341 1349 1357 1365 1373 1380 1384 1390 1397 1403 1408 1411 1417 1421 1424 1427 1432 1436 1439 1442 1444 1446 1447
1269 1263 1261 1262 1267 1274 1279 1281 1285 1292 1300 1307 1317 1324 1330 1337 1343 1348 1355 1363 1367 1373 1379 1387 1394 1401 1404 1409 1411 1415 1419 1423 1428 1432 1433 1434 1435 1439
1288 1282 1282 1283 1287 1294 1295 1295 1297 1303 1305 1311 1315 1320 1326 1332 1337 1343 1348 1354 1359 1365 1372 1377 1384 1391 1395 1398 1402 1406 1411 1413 1419 1423 1423 1426 1427 1430
1304 1307 1307 1308 1311 1312 1308 1308 1310 1315 1316 1314 1317 1320 1322 1327 1333 1337 1341 1347 1353 1360 1364 1368 1374 1380 1383 1383 1391 1396 1401 1403 1409 1411 1414 1416 1417 1420
1322 1323 1325 1325 1323 1320 1321 1324 1322 1322 1320 1320 1324 1325 1327 1329 1331 1333 1338 1343 1347 1351 1355 1361 1365 1367 1372 1375 1381 1386 1392 1396 1399 1400 1402 1407 1406 1410
1339 1338 1338 1338 1336 1333 1330 1329 1327 1327 1331 1333 1332 1331 1334 1334 1332 1333 1338 1342 1345 1347 1349 1353 1356 1358 1362 1367 1373 1376 1382 1387 1389 1388 1394 1396 1395 1398
1345 1346 1349 1348 1344 1341 1340 1342 1342 1342 1342 1344 1340 1337 1340 1338 1334 1336 1338 1340 1344 1346 1347 1350 1351 1354 1357 1362 1362 1367 1371 1375 1379 1380 1382 1387 1389 1386
1350 1351 1350 1350 1351 1351 1350 1352 1354 1356 1354 1347 1338 1341 1341 1342 1342 1341 1342 1343 1345 1343 1344 1345 1347 1350 1351 1354 1356 1357 1362 1366 1367 1370 1372 1375 1377 1378